Voltar ao catálogo

STARLINK-32132

AtivoComunicaçõesVLEO
NORAD 60334·PAYLOAD·🇺🇸 United States

Lançado Aug 2, 2024 de Cape Canaveral Space Force Station

Loading…

Próximas Passagens (próximas 24 horas)

TLE

AtualizadoSource: CelesTrak SupGP

Época: Sep 14, 2026, 21:30 UTC

1 60334C 24136F   26257.89631944  .00048794  00000+0  14419-2 0  2577
2 60334  53.1573 275.9964 0001259  97.2092 297.9193 15.34359598    13

Acompanhe STARLINK-32132 em tempo real com AllMySat

Download on the App Store